Tracking 32214 objects as of 19-Nov-2025
HD Live streaming from Space Station
objects crossing your sky now

STARLINK-35285

Track STARLINK-35285 now!
10-day predictions
STARLINK-35285 is classified as:


NORAD ID: 65807
Int'l Code: 2025-218S
Perigee: 554.5 km
Apogee: 558.8 km
Inclination: 97.6 °
Period: 95.6 minutes
Semi major axis: 6927 km
RCS: Unknown
Launch date: September 26, 2025
Source: United States (US)
Launch site: AIR FORCE EASTERN TEST RANGE (AFETR)
Your satellite tracking list
Your tracking list is empty




NASA's NSSDC Master Catalog

Two Line Element Set (TLE):
1 65807U 25218S   25322.60393465  .00001132  00000-0  82619-4 0  9991
2 65807  97.6027 183.4420 0003103  87.2281 272.9301 15.05650246  8259
Source of the keplerian elements: AFSPC